******************************************************************************* JPL/HORIZONS PANSTARRS (C/2013 X1) 2025-Dec-12 21:18:21 Rec #:90004251 (+COV) Soln.date: 2022-Oct-25_15:34:16 # obs: 539 (2013-2018) IAU76/J2000 helio. ecliptic osc. elements (au, days, deg., period=Julian yrs): EPOCH= 2457376.5 ! 2015-Dec-20.0000000 (TDB) RMSW= n.a. EC= 1.001026030109369 QR= 1.314236485860392 TP= 2457499.2287034444 OM= 130.9548639714141 W= 164.4606649991445 IN= 163.2319318726818 A= -1280.894657827026 MA= -.00263863973735846 ADIST= 9.999999E99 PER= 9.999999E99 N= 2.15E-5 ANGMOM= .027896169 DAN= 73.94468000000001 DDN= 1.33872 L= 325.8635009 B= 4.4327333 MOID= .309751 TP= 2016-Apr-20.7287034444 Comet physical (GM= km^3/s^2; RAD= km): GM= n.a. RAD= n.a. M1= 10.7 M2= n.a. k1= 4.5 k2= n.a. PHCOF= n.a. Comet non-gravitational force model (AMRAT=m^2/kg;A1-A3=au/d^2;DT=days;R0=au): AMRAT= 0. DT= 44.52164 A1= 1.929945588112E-8 A2= -1.093533039093E-8 A3= -5.358334779739E-9 Standard model: ALN= .1112620426 NK= 4.6142 NM= 2.15 NN= 5.093 R0= 2.808 COMET comments 1: soln ref.= JPL#83, data arc: 2013-10-17 to 2018-01-29 2: k1=4.5; ******************************************************************************* ******************************************************************************* Ephemeris / WWW_USER Fri Dec 12 21:18:22 2025 Pasadena, USA / Horizons ******************************************************************************* Target body name: PANSTARRS (C/2013 X1) {source: JPL#83} Center body name: Solar System Barycenter (0) {source: DE441} Center-site name: BODY CENTER ******************************************************************************* Start time : A.D. 1800-Jan-01 00:00:00.0000 TDB Stop time : A.D. 2200-Jan-01 00:00:00.0000 TDB Step-size : 400 calendar years ******************************************************************************* Center geodetic : 0.0, 0.0, 0.0 {E-lon(deg),Lat(deg),Alt(km)} Center cylindric: 0.0, 0.0, 0.0 {E-lon(deg),Dxy(km),Dz(km)} Center radii : (undefined) Keplerian GM : 2.9630927493968080E-04 au^3/d^2 Small perturbers: Yes {source: SB441-N16} Output units : AU-D, deg, Julian Day Number (Tp) Calendar mode : Mixed Julian/Gregorian Output type : GEOMETRIC osculating elements Output format : 10 Reference frame : Ecliptic of J2000.0 ******************************************************************************* Initial IAU76/J2000 heliocentric ecliptic osculating elements (au, days, deg.): EPOCH= 2457376.5 ! 2015-Dec-20.0000000 (TDB) RMSW= n.a. EC= 1.001026030109369 QR= 1.314236485860392 TP= 2457499.2287034444 OM= 130.9548639714141 W= 164.4606649991445 IN= 163.2319318726818 Equivalent ICRF heliocentric cartesian coordinates (au, au/d): X= 1.482028070605146E+00 Y= 1.101675856238974E+00 Z= 1.162315316215993E+00 VX= 1.901309832947753E-03 VY=-1.370622384589716E-02 VZ=-8.943553770408376E-03 Comet physical (GM= km^3/s^2; RAD= km): GM= n.a. RAD= n.a. M1= 10.7 M2= n.a. k1= 4.5 k2= n.a. PHCOF= n.a. Comet non-gravitational force model (AMRAT=m^2/kg;A1-A3=au/d^2;DT=days;R0=au): AMRAT= 0. DT= 44.52164 A1= 1.929945588112E-8 A2= -1.093533039093E-8 A3= -5.358334779739E-9 Standard model: ALN= .1112620426 NK= 4.6142 NM= 2.15 NN= 5.093 R0= 2.808 ******************************************************************************* JDTDB EC QR IN OM W Tp N MA TA A AD PR ******************************************************************************* $$SOE 2378496.500000000 = A.D. 1800-Jan-01 00:00:00.0000 TDB EC= 9.996683588642736E-01 QR= 1.320078534048653E+00 IN= 1.632373009727450E+02 OM= 1.309690050438739E+02 W = 1.644413666759738E+02 Tp= 2457500.197810937651 N = 3.927337210416505E-06 MA= 3.596897258378266E+02 TA= 1.891954458246665E+02 A = 3.980442688918714E+03 AD= 7.959565299303381E+03 PR= 9.166516158713576E+07 2524593.500000000 = A.D. 2200-Jan-01 00:00:00.0000 TDB EC= 1.000465566780985E+00 QR= 1.312245037690420E+00 IN= 1.631392887487393E+02 OM= 1.317989306329061E+02 W = 1.652565393170286E+02 Tp= 2457499.637991618365 N = 6.590916721124053E-06 MA= 4.422100569958319E-01 TA= 1.700922780163905E+02 A =-2.818596797033714E+03 AD= 9.999999999999998E+99 PR= 9.999999999999998E+99 $$EOE ******************************************************************************* TIME Barycentric Dynamical Time ("TDB" or T_eph) output was requested. This continuous coordinate time is equivalent to the relativistic proper time of a clock at rest in a reference frame co-moving with the solar system barycenter but outside the system's gravity well. It is the independent variable in the solar system relativistic equations of motion. TDB runs at a uniform rate of one SI second per second and is independent of irregularities in Earth's rotation. CALENDAR SYSTEM Mixed calendar mode was active such that calendar dates after AD 1582-Oct-15 (if any) are in the modern Gregorian system. Dates prior to 1582-Oct-5 (if any) are in the Julian calendar system, which is automatically extended for dates prior to its adoption on 45-Jan-1 BC. The Julian calendar is useful for matching historical dates. The Gregorian calendar more accurately corresponds to the Earth's orbital motion and seasons. A "Gregorian-only" calendar mode is available if such physical events are the primary interest. REFERENCE FRAME AND COORDINATES Ecliptic at the standard reference epoch Reference epoch: J2000.0 X-Y plane: adopted Earth orbital plane at the reference epoch Note: IAU76 obliquity of 84381.448 arcseconds wrt ICRF X-Y plane X-axis : ICRF Z-axis : perpendicular to the X-Y plane in the directional (+ or -) sense of Earth's north pole at the reference epoch. Symbol meaning [1 au= 149597870.700 km, 1 day= 86400.0 s]: JDTDB Julian Day Number, Barycentric Dynamical Time EC Eccentricity, e QR Periapsis distance, q (au) IN Inclination w.r.t X-Y plane, i (degrees) OM Longitude of Ascending Node, OMEGA, (degrees) W Argument of Perifocus, w (degrees) Tp Time of periapsis (Julian Day Number) N Mean motion, n (degrees/day) MA Mean anomaly, M (degrees) TA True anomaly, nu (degrees) A Semi-major axis, a (au) AD Apoapsis distance (au) PR Sidereal orbit period (day) ABERRATIONS AND CORRECTIONS Geometric osculating elements have NO corrections or aberrations applied. Computations by ... Solar System Dynamics Group, Horizons On-Line Ephemeris System 4800 Oak Grove Drive, Jet Propulsion Laboratory Pasadena, CA 91109 USA General site: https://ssd.jpl.nasa.gov/ Mailing list: https://ssd.jpl.nasa.gov/email_list.html System news : https://ssd.jpl.nasa.gov/horizons/news.html User Guide : https://ssd.jpl.nasa.gov/horizons/manual.html Connect : browser https://ssd.jpl.nasa.gov/horizons/app.html#/x API https://ssd-api.jpl.nasa.gov/doc/horizons.html command-line telnet ssd.jpl.nasa.gov 6775 e-mail/batch https://ssd.jpl.nasa.gov/ftp/ssd/horizons_batch.txt scripts https://ssd.jpl.nasa.gov/ftp/ssd/SCRIPTS Author : Jon.D.Giorgini@jpl.nasa.gov ******************************************************************************* !$$SOF CENTER = '@0' COMMAND = '2013 X1' OUT_UNITS = 'AU-D' START_TIME = '1800-01-01' STEP_SIZE = '400 years' STOP_TIME = '2200-01-01' TABLE_TYPE = 'ELEMENTS'